User: anonymous   Login
Location: Hurstbourne Priors
(51.2000°N, 1.3667°W)
Time: 15:17:30
(UTC+00:00)
Language:

Explorer 11/Cluster Stage 4 - Orbit

View from above orbital plane
View from above orbital plane
View from above satellite
View from above satellite

Ground track
Ground track

The orbit data is extracted from the following two-line orbital elements,

1 00107U 61013A   21112.74669026  .00000380  00000-0  33263-4 0  9998
2 00107  28.7865 234.3977 0546025  48.5596 316.0591 14.09178425  9892
Epoch (UTC): 22 April 2021 17:55:14
Eccentricity: 0.0546025
inclination: 28.7865°
perigee height: 467 km
apogee height: 1257 km
right ascension of ascending node: 234.3977°
argument of perigee: 48.5596°
revolutions per day: 14.09178425
mean anomaly at epoch: 316.0591°
orbit number at epoch: 989

The dashed part of the orbit path shows where the satellite is in the earth's shadow,  

DLR